Home   Weather   Virginia Beach   Past weeks
Flag for USA

Past Weather in Virginia Beach, Virginia, USA — Yesterday and Last 2 Weeks

Now
73 °F

Passing clouds.


Feels Like: 70 °F
Forecast: 80 / 66 °F
Wind: 5 mph from North

Location: Virginia Beach - Oceana

Current Time: May 19, 2019 at 8:47:49 am

Latest Report: May 19, 2019 at 7:56 am


Visibility: 8 mi

Pressure: 30.06 "Hg

Humidity: 94%

Dew Point: 71 °F

Location of Virginia BeachLocation

Past Weather in Virginia Beach — Graph

°F

Virginia Beach Temperature Yesterday

Maximum temperature yesterday: 81 °F (at 11:56 am)
Minimum temperature yesterday: 65 °F (at 4:56 am)
Average temperature yesterday: 71 °F

High & Low Weather Summary for the Past Weeks

 TemperatureHumidityPressure
High85 °F (May 17, 4:56 pm)97% (May 5, 6:03 pm)30.22 "Hg (May 5, 6:03 pm)
Low51 °F (May 14, 3:56 am)30% (May 15, 4:56 pm)29.59 "Hg (May 5, 4:56 pm)
Average67 °F78%29.93 "Hg
* Reported May 4 6:04 am — May 19 6:56 am, Virginia Beach. Weather by CustomWeather, © 2019

Note: Actual official high and low records may vary slightly from our data, if they occured in-between our weather recording intervals... More about our weather records

Advertising

Virginia Beach Weather History for the Previous 24 Hours

Scroll right to see more
 ConditionsComfort  
Time TempWeatherWind HumidityBarometerVisibility
6:56 am
Sun, May 19
70 °FFog.7 mph97%30.06 "Hg5 mi
5:56 am68 °FFog.5 mph96%30.05 "Hg6 mi
4:56 am69 °FFog.5 mph96%30.04 "Hg6 mi
3:56 am69 °FFog.5 mph96%30.04 "Hg5 mi
2:56 am69 °FFog.5 mph93%30.04 "Hg5 mi
1:56 am67 °FFog.6 mph97%30.04 "Hg5 mi
12:56 am66 °FClear.3 mph93%30.06 "Hg10 mi
11:56 pm
Sat, May 18
67 °FClear.5 mph90%30.05 "Hg10 mi
10:56 pm67 °FClear.6 mph87%30.06 "Hg10 mi
9:56 pm67 °FClear.6 mph87%30.05 "Hg10 mi
8:56 pm66 °FPassing clouds.7 mph87%30.03 "Hg10 mi
7:56 pm67 °FPassing clouds.9 mph87%30.03 "Hg10 mi
6:56 pm69 °FPassing clouds.10 mph81%30.01 "Hg10 mi
5:56 pm70 °FPassing clouds.8 mph79%30.00 "Hg10 mi
4:56 pm72 °FPassing clouds.9 mph73%30.00 "Hg10 mi
3:56 pm72 °FPassing clouds.10 mph71%30.00 "Hg10 mi
2:56 pm73 °FScattered clouds.10 mph74%30.01 "Hg8 mi
1:56 pm75 °FScattered clouds.12 mph71%30.02 "Hg10 mi
12:56 pm81 °FPartly sunny.9 mph58%30.01 "Hg10 mi
11:56 am81 °FPartly sunny.3 mph58%30.00 "Hg10 mi
10:56 am78 °FPartly sunny.3 mph64%30.01 "Hg10 mi
9:56 am76 °FPartly sunny.10 mph67%30.00 "Hg10 mi
8:56 am75 °FPartly sunny.5 mph76%29.98 "Hg10 mi
Weather by CustomWeather, © 2019

See weather overview